Date,TemperatureHighF,TemperatureAvgF,TemperatureLowF,DewpointHighF,DewpointAvgF,DewpointLowF,HumidityHigh,HumidityAvg,HumidityLow,PressureMaxIn,PressureMinIn,WindSpeedMaxMPH,WindSpeedAvgMPH,GustSpeedMaxMPH,PrecipitationSumIn
2013-1-1,23.0,20.0,16.4,17.3,14.2,10.6,89,78,64,30.12,30.00,17,4,18,0.00
2013-1-2,24.5,22.5,17.7,21.1,18.1,10.9,90,83,66,30.10,29.99,16,3,16,0.00
2013-1-3,29.2,25.9,23.1,24.8,21.5,17.2,93,83,71,30.06,29.92,27,5,27,0.00
2013-1-4,34.2,29.8,27.1,28.1,24.2,21.1,86,79,68,30.09,29.81,22,8,30,0.00
2013-1-5,35.1,30.7,24.4,30.6,23.8,20.0,88,76,65,30.18,29.83,15,3,18,0.02
2013-1-6,34.9,29.3,24.7,31.3,25.1,19.1,90,84,78,30.25,29.78,15,4,15,0.00
2013-1-7,40.2,32.5,23.8,30.8,25.3,19.3,83,75,60,30.25,29.84,37,8,37,0.02
2013-1-8,41.9,35.5,28.2,32.5,29.8,25.1,92,80,63,30.12,29.92,24,3,25,0.00
2013-1-9,39.4,36.6,33.1,34.1,28.6,24.5,82,73,65,30.40,29.75,26,8,26,0.00
2013-1-10,41.4,33.4,22.4,28.3,25.4,19.6,92,73,52,30.52,30.11,18,4,19,0.00
2013-1-11,43.8,38.6,33.5,42.7,36.8,27.7,97,93,74,30.11,29.62,19,4,21,0.62
2013-1-12,50.8,43.2,34.1,45.6,39.1,28.7,97,86,68,29.93,29.56,40,7,40,0.01
2013-1-13,34.1,30.1,25.2,29.1,27.1,23.4,94,89,81,29.95,29.80,14,2,15,0.00
2013-1-14,25.1,22.5,19.8,23.4,16.3,10.6,93,77,55,30.34,29.95,20,6,22,0.00
2013-1-15,27.6,22.5,10.1,22.0,15.5,5.3,84,74,64,30.37,30.03,19,6,21,0.00
2013-1-16,30.3,26.7,18.5,28.1,22.3,11.0,94,83,72,30.03,29.59,37,8,37,0.00
2013-1-17,18.5,14.0,12.2,11.7,5.1,-0.2,83,67,53,30.31,29.99,24,7,24,0.00
2013-1-18,30.4,18.3,13.0,28.7,12.8,3.1,94,79,62,30.34,29.75,17,4,18,0.00
2013-1-19,36.8,29.1,24.2,35.0,26.9,20.2,96,92,84,29.82,29.38,27,4,27,0.37
2013-1-20,24.3,14.5,10.8,21.0,7.4,0.1,91,73,60,30.14,29.44,33,10,35,0.00
2013-1-21,11.8,8.2,1.6,6.8,0.8,-4.4,84,72,52,30.08,29.92,25,7,25,0.00
2013-1-22,8.2,3.2,-0.7,1.0,-3.2,-5.9,82,74,64,30.24,30.05,19,6,20,0.00
2013-1-23,13.4,10.4,7.5,8.3,4.7,1.0,87,77,68,30.28,30.05,17,5,20,0.00
2013-1-24,10.3,1.6,-14.5,4.0,-3.3,-19.1,86,80,66,30.68,30.28,12,2,12,0.00
2013-1-25,19.1,13.3,7.6,15.5,9.1,1.3,90,83,70,30.50,29.99,12,4,13,0.00
2013-1-26,26.0,14.9,1.5,17.9,11.0,-1.6,92,85,65,30.42,30.05,7,1,8,0.05
2013-1-27,30.2,25.3,17.1,25.3,20.5,13.9,92,82,70,30.42,30.07,15,4,15,0.00
2013-1-28,33.1,29.1,26.1,29.7,27.0,23.9,93,92,87,30.07,29.83,14,3,14,0.03
2013-1-29,48.2,36.3,30.2,47.7,35.0,28.0,98,95,90,29.99,29.46,18,4,18,0.42
2013-1-30,35.0,30.4,16.6,34.2,29.1,13.6,97,95,88,29.47,29.11,12,5,13,0.25
2013-1-31,16.8,14.0,10.7,13.6,10.7,7.2,91,86,81,29.85,29.20,14,6,17,0.00
2013-2-1,15.9,13.5,9.9,12.6,10.2,7.0,91,87,79,30.11,29.85,17,5,17,0.00
2013-2-2,15.0,8.5,1.3,7.9,4.5,-1.8,89,84,68,30.08,30.04,10,2,10,0.01
2013-2-3,17.5,10.2,-1.4,13.7,6.5,-4.8,90,85,78,30.04,29.82,17,3,18,0.00
2013-2-4,15.8,6.5,-10.2,7.8,1.8,-15.1,88,81,58,30.01,29.94,11,2,12,0.00
2013-2-5,21.8,11.8,-5.5,19.3,8.3,-9.2,90,86,81,30.01,29.69,18,4,20,0.00
2013-2-6,24.2,13.0,-5.0,19.4,9.3,-9.0,91,85,70,30.26,30.01,16,3,16,0.00
2013-2-7,25.2,20.2,16.9,23.0,17.9,14.2,93,91,89,30.25,30.14,23,8,23,0.00
2013-2-8,22.7,15.2,-3.1,16.8,11.0,-6.6,92,83,70,30.42,30.15,20,5,20,0.00
2013-2-9,27.5,9.8,-8.5,18.9,4.8,-12.4,90,80,58,30.45,30.23,9,2,9,0.00
2013-2-10,33.7,27.9,20.8,32.2,23.2,16.0,95,82,72,30.23,29.52,23,5,23,0.00
2013-2-11,38.1,32.7,24.9,36.4,30.8,21.2,96,93,85,29.75,29.34,26,6,26,0.00
2013-2-12,27.8,25.8,24.2,23.0,21.2,19.5,90,83,73,29.94,29.75,19,5,20,0.00
2013-2-13,35.2,31.0,26.6,30.4,27.4,22.4,94,86,81,29.82,29.66,21,4,21,0.01
2013-2-14,34.6,32.3,27.2,33.0,30.4,25.5,95,93,88,29.75,29.59,19,3,19,0.07
2013-2-15,22.7,17.6,13.3,17.5,12.8,8.2,90,81,70,30.14,29.91,17,5,19,0.00
2013-2-16,17.0,8.0,-3.1,10.0,3.3,-6.7,90,81,64,30.18,30.07,13,3,15,0.00
2013-2-17,21.2,11.6,0.6,11.4,5.2,-2.6,90,76,51,30.22,30.12,12,2,12,0.00
2013-2-18,35.5,26.4,14.2,31.7,18.3,8.5,94,72,58,30.13,29.44,21,7,22,0.13
2013-2-19,37.4,26.1,12.8,36.2,24.0,8.4,96,92,82,29.84,29.14,28,10,29,0.15
2013-2-20,16.4,12.4,9.3,12.3,7.3,3.7,85,80,72,30.33,29.84,21,8,21,0.00
2013-2-21,20.2,13.3,8.7,12.3,8.4,5.7,90,81,67,30.49,30.33,22,4,23,0.00
2013-2-22,29.4,25.3,14.6,27.4,22.8,11.9,93,90,88,30.36,29.82,32,8,32,0.00
2013-2-23,31.9,27.3,20.4,28.4,25.0,18.3,95,91,81,29.84,29.75,10,2,10,0.09
2013-2-24,33.9,25.7,14.8,28.8,23.2,12.8,95,90,79,30.15,29.83,12,2,12,0.03
2013-2-25,36.4,30.2,26.3,28.2,25.5,24.0,92,83,65,30.20,30.13,11,2,11,0.00
2013-2-26,33.7,30.4,22.7,28.0,25.0,18.6,89,80,74,30.19,29.81,32,9,34,0.00
2013-2-27,33.8,31.5,29.6,31.7,29.1,25.9,95,91,81,29.81,29.68,28,10,30,0.00
2013-2-28,32.2,28.8,20.2,30.6,23.3,13.4,94,80,66,30.12,29.72,19,7,19,0.00
2013-3-1,26.3,18.1,5.8,15.1,11.1,2.6,93,74,60,30.25,30.12,11,4,12,0.00
2013-3-2,25.7,15.0,3.5,17.2,9.3,0.5,90,78,67,30.24,30.13,17,4,17,0.00
2013-3-3,25.6,10.5,-3.6,15.8,5.5,-7.2,91,80,64,30.14,30.07,15,3,16,0.00
2013-3-4,27.8,11.9,-5.7,13.0,4.4,-9.7,90,74,39,30.21,30.12,9,2,9,0.00
2013-3-5,26.9,20.8,5.9,20.7,15.6,2.3,93,80,70,30.21,30.07,24,6,24,0.00
2013-3-6,37.3,30.6,25.8,30.0,26.2,20.7,94,84,72,30.28,30.11,19,4,19,0.00
2013-3-7,28.7,25.9,23.5,22.9,20.8,18.5,89,81,73,30.45,30.27,15,4,16,0.00
2013-3-8,37.2,26.1,14.8,29.1,22.5,12.6,93,87,71,30.52,30.38,14,2,14,0.00
2013-3-9,44.3,33.0,18.6,32.5,23.7,16.5,94,71,44,30.38,29.95,16,4,16,0.23
2013-3-10,40.7,36.5,33.7,39.7,35.1,32.4,97,95,91,29.95,29.78,16,3,17,0.74
2013-3-11,46.0,37.6,32.3,44.7,36.7,31.5,98,96,93,29.84,29.41,25,5,27,0.62
2013-3-12,32.3,26.4,20.7,31.8,24.1,17.6,98,91,82,29.85,29.44,14,5,15,0.00
2013-3-13,28.3,22.4,16.6,20.6,16.2,12.9,91,78,54,30.20,29.84,19,8,22,0.02
2013-3-14,31.7,25.2,9.6,24.6,18.0,6.5,90,74,50,30.25,29.97,15,4,16,0.04
2013-3-15,32.4,27.8,19.7,29.4,20.9,10.8,93,75,59,29.98,29.83,22,8,22,0.00
2013-3-16,23.0,18.4,13.4,19.9,11.2,6.8,88,74,52,30.04,29.93,16,5,17,0.00
2013-3-17,22.9,17.0,10.8,20.0,8.0,3.0,90,68,51,30.35,30.04,24,6,26,0.00
2013-3-18,36.9,24.5,13.2,27.7,17.8,7.4,92,76,50,30.25,29.50,30,9,31,0.00
2013-3-19,30.2,26.7,24.0,28.4,23.7,17.6,93,89,76,29.80,29.42,22,7,25,0.00
2013-3-20,26.6,23.3,20.2,22.6,17.8,13.9,92,80,69,29.84,29.80,26,7,26,0.00
2013-3-21,26.6,25.0,22.6,24.4,20.3,17.0,93,82,72,29.94,29.82,20,7,20,0.00
2013-3-22,34.0,27.1,21.9,25.4,22.2,18.4,90,82,68,30.06,29.92,17,5,17,0.01
2013-3-23,36.2,28.7,16.9,28.5,23.8,14.5,94,82,63,30.12,30.05,15,4,16,0.00
2013-3-24,35.0,28.6,17.6,24.3,20.8,15.0,94,74,48,30.12,29.87,15,4,15,0.00
2013-3-25,38.0,32.3,28.4,28.9,25.1,22.1,87,75,62,30.00,29.85,19,7,20,0.00
2013-3-26,41.4,34.4,29.9,30.5,27.6,23.6,93,78,50,30.12,30.00,22,4,22,0.00
2013-3-27,41.4,33.1,23.7,29.8,27.6,22.2,96,81,62,30.21,30.09,20,5,20,0.00
2013-3-28,44.4,34.6,25.4,29.5,26.4,23.0,94,74,44,30.27,30.20,17,3,17,0.00
2013-3-29,44.9,31.7,18.4,27.0,22.0,16.0,94,70,39,30.28,30.21,14,3,16,0.00
2013-3-30,49.4,36.2,22.5,37.5,23.8,17.4,93,65,30,30.22,29.78,21,3,24,0.24
2013-3-31,41.1,37.7,34.3,39.7,36.6,33.4,97,96,93,29.78,29.58,15,3,18,0.10
2013-4-2,25.4,23.7,23.3,14.5,13.6,12.1,68,65,59,30.25,30.22,14,6,16,0.00
2013-4-3,33.2,27.4,19.1,19.1,15.9,11.6,78,62,50,30.43,30.24,18,5,20,0.00
2013-4-4,40.4,34.3,26.3,34.2,25.4,12.2,94,72,46,30.25,29.92,27,6,35,0.12
2013-4-5,34.6,30.0,24.0,27.2,20.4,15.5,87,68,50,30.24,30.02,17,5,17,0.00
2013-4-6,35.4,29.9,19.8,31.6,25.6,16.8,91,84,65,30.23,29.57,28,6,28,0.14
2013-4-7,45.4,35.9,27.2,44.0,32.5,25.6,96,88,74,30.06,29.41,19,5,21,0.18
2013-4-8,40.1,33.1,26.3,34.1,30.1,24.6,96,89,76,30.06,29.82,20,6,20,0.13
2013-4-9,41.0,35.9,32.7,37.6,33.9,30.4,97,92,82,30.12,30.01,12,2,13,0.01
2013-4-10,42.4,35.4,31.6,31.4,29.0,22.1,93,78,55,30.16,30.06,17,6,19,0.00
2013-4-11,35.1,30.8,28.2,26.5,22.7,17.9,91,72,63,30.17,29.86,36,14,37,0.00
2013-4-12,32.7,29.3,26.9,29.1,26.7,24.9,94,90,84,29.87,29.63,42,13,42,0.00
2013-4-13,35.9,32.4,29.3,30.8,29.1,25.5,96,88,74,29.91,29.69,19,5,21,0.09
2013-4-14,42.4,34.5,27.3,29.6,26.9,24.0,89,74,55,30.07,29.91,21,5,21,0.00
2013-4-15,51.2,42.4,34.6,48.8,38.8,26.7,96,87,71,29.95,29.74,36,7,36,0.22
2013-4-16,45.2,38.7,29.5,36.0,31.3,26.6,92,75,60,30.33,29.84,22,5,25,0.00
2013-4-17,45.4,36.1,23.3,35.1,29.6,21.3,95,78,63,30.42,30.11,21,6,21,0.00
2013-4-18,43.6,39.2,36.2,41.4,37.5,33.0,97,94,85,30.11,29.38,23,7,24,0.37
2013-4-19,44.7,36.5,26.2,43.9,31.9,18.7,97,84,69,29.63,29.18,36,10,42,0.26
2013-4-20,33.4,26.7,20.6,24.4,17.2,12.4,85,67,51,30.47,29.63,29,8,29,0.00
2013-4-21,47.4,32.1,14.6,30.7,19.1,11.6,92,63,25,30.62,30.37,17,4,17,0.00
2013-4-22,59.2,44.4,32.3,38.5,31.5,26.2,91,62,42,30.37,30.11,17,4,17,0.00
2013-4-23,54.6,41.6,32.5,45.4,35.2,30.1,96,79,54,30.11,29.84,20,4,20,0.32
2013-4-24,44.4,35.7,27.4,31.1,27.2,21.4,93,73,41,30.00,29.89,17,4,17,0.01
2013-4-25,44.9,36.8,27.4,35.0,29.6,22.5,90,76,53,30.27,29.88,30,5,31,0.00
2013-4-26,62.5,41.8,27.0,39.7,32.3,23.9,92,71,37,30.33,30.14,20,4,21,0.00
2013-4-27,65.9,52.5,38.8,50.2,43.3,36.0,96,73,46,30.20,30.07,20,4,20,0.01
2013-4-28,69.7,54.2,36.2,46.7,39.7,34.2,94,63,30,30.07,29.79,19,5,19,0.00
2013-4-29,64.1,53.9,46.3,54.0,49.6,43.7,96,86,65,29.84,29.79,16,3,16,0.10
2013-4-30,76.0,62.3,51.9,59.6,55.5,50.5,96,80,54,29.86,29.73,26,5,27,0.11
2013-5-1,74.3,62.5,45.2,60.1,51.5,35.6,88,68,50,30.27,29.83,22,6,22,0.00
2013-5-2,71.4,50.3,36.9,51.7,41.0,34.4,93,72,46,30.28,30.13,17,4,19,0.00
2013-5-3,67.7,52.8,36.9,48.6,42.2,34.8,92,69,47,30.19,30.05,18,5,18,0.00
2013-5-4,73.5,63.8,51.4,52.4,44.6,28.8,74,52,27,30.10,30.03,24,6,24,0.00
2013-5-5,73.0,60.4,44.0,44.2,39.4,30.2,80,49,24,30.12,30.01,25,5,25,0.00
2013-5-6,73.5,59.2,39.2,46.8,39.6,35.2,88,53,27,30.09,29.99,14,3,14,0.00
2013-5-7,77.5,60.7,38.3,44.7,36.4,30.6,88,47,19,30.08,29.99,25,4,25,0.00
2013-5-8,77.8,62.8,46.6,44.8,39.2,31.8,74,45,21,30.01,29.94,14,3,14,0.00
2013-5-9,70.8,55.4,41.7,49.5,43.3,37.7,88,66,43,30.03,29.92,16,4,17,0.05
2013-5-10,45.7,40.2,37.2,41.2,37.1,34.8,93,88,81,30.04,29.93,22,6,22,0.57
2013-5-11,46.9,37.7,31.1,40.0,34.6,30.1,97,89,71,29.94,29.70,20,4,20,0.24
2013-5-12,40.1,36.3,33.6,34.9,28.4,24.0,93,74,59,30.05,29.70,31,11,34,0.04
2013-5-13,49.1,40.6,29.8,32.6,27.0,20.8,90,61,34,30.14,30.03,20,4,20,0.00
2013-5-14,64.7,50.8,39.5,46.0,39.2,27.2,88,66,46,30.03,29.59,25,7,25,0.06
2013-5-15,70.1,56.7,44.1,48.8,43.4,38.4,90,64,36,29.73,29.42,20,5,21,0.00
2013-5-16,60.7,50.1,37.1,42.3,39.2,35.3,94,68,47,30.08,29.71,19,4,19,0.00
2013-5-17,66.3,51.9,33.5,45.2,40.2,31.5,95,67,42,30.20,30.08,18,4,18,0.00
2013-5-18,63.4,55.1,42.7,47.5,43.2,38.1,88,65,50,30.19,30.01,16,4,16,0.00
2013-5-19,80.5,66.7,55.2,62.9,52.8,44.0,73,61,52,30.01,29.82,16,5,18,0.00
2013-5-20,74.0,61.9,54.4,63.5,56.0,50.3,97,82,60,29.86,29.69,23,7,24,0.34
2013-5-21,69.1,56.2,51.2,63.0,53.9,50.3,97,92,76,29.78,29.65,25,7,25,0.31
2013-5-22,57.7,54.7,52.2,56.1,53.6,50.8,98,96,93,29.75,29.67,15,5,17,0.57
2013-5-23,52.2,46.2,39.8,50.8,39.3,32.9,96,78,53,30.25,29.75,22,8,22,0.52
2013-5-24,53.1,41.7,28.2,36.8,32.3,26.2,95,71,48,30.40,30.25,16,4,16,0.00
2013-5-25,60.5,45.9,29.6,40.7,34.5,28.2,96,69,36,30.45,30.31,16,3,16,0.00
2013-5-26,66.3,49.8,31.7,42.8,35.5,26.9,96,64,26,30.38,30.23,16,2,16,0.00
2013-5-27,70.5,54.7,33.6,45.5,36.5,31.7,94,57,25,30.25,30.00,18,5,19,0.00
2013-5-28,55.4,52.6,49.2,52.8,45.7,34.3,97,80,47,30.00,29.73,17,6,18,0.17
2013-5-29,66.3,56.7,51.0,61.0,54.7,50.2,98,93,79,29.91,29.72,15,3,17,0.01
2013-5-30,84.8,72.0,57.5,70.6,63.9,56.4,98,78,53,29.91,29.80,23,4,23,0.01
2013-5-31,74.3,69.0,60.2,67.2,63.6,58.1,95,83,70,29.87,29.71,30,5,30,0.18
2013-6-1,74.3,64.6,56.9,66.1,61.5,54.6,96,90,74,29.72,29.59,19,2,19,0.25
2013-6-2,59.5,47.6,41.8,57.4,43.7,35.5,96,87,71,30.00,29.56,22,7,22,0.13
2013-6-3,56.9,46.9,31.9,44.7,38.2,30.6,96,73,49,30.12,29.99,24,4,24,0.00
2013-6-4,62.1,48.9,31.4,43.9,35.9,29.9,96,65,34,30.23,30.12,11,2,11,0.00
2013-6-5,58.4,51.8,45.8,48.5,44.3,41.6,90,76,60,30.20,30.10,16,4,16,0.00
2013-6-6,67.0,57.0,49.7,45.8,41.2,35.3,76,57,34,30.10,29.95,22,7,22,0.00
2013-6-7,72.8,57.0,37.2,46.3,40.6,34.3,91,59,27,29.98,29.88,16,3,17,0.00
2013-6-8,66.3,55.1,40.3,52.5,45.3,38.7,95,72,42,30.05,29.90,9,2,10,0.00
2013-6-9,75.5,60.3,39.3,56.8,48.8,37.2,95,69,42,30.12,29.98,17,4,17,0.00
2013-6-10,71.3,62.5,58.5,61.0,55.0,49.5,95,77,65,29.99,29.79,20,7,23,0.00
2013-6-11,75.0,62.3,54.6,63.6,58.8,53.1,98,89,65,29.85,29.78,15,2,15,0.00
2013-6-12,77.3,63.4,49.8,61.5,54.5,49.1,99,76,41,29.90,29.73,12,2,12,0.01
2013-6-13,71.8,59.6,47.4,58.7,52.6,45.7,96,79,60,30.01,29.71,21,5,21,0.00
2013-6-14,72.8,56.6,39.2,47.7,41.0,30.9,96,62,23,30.12,30.00,11,2,12,0.00
2013-6-15,74.5,58.7,41.0,59.5,47.9,38.6,95,70,36,30.02,29.81,12,2,12,0.02
2013-6-16,72.9,62.7,54.2,63.8,58.7,52.3,98,88,65,29.83,29.72,18,3,18,0.28
2013-6-17,63.6,56.5,49.8,55.6,52.7,48.4,98,88,73,30.01,29.79,14,3,14,0.01
2013-6-18,69.3,55.3,38.2,50.2,43.1,37.2,97,69,33,30.12,30.01,20,3,20,0.00
2013-6-19,67.8,56.4,37.5,50.1,44.8,36.1,96,69,41,30.17,30.08,17,3,17,0.00
2013-6-20,78.2,63.8,45.9,58.5,49.8,43.0,91,64,35,30.14,30.08,18,3,20,0.00
2013-6-21,78.2,65.5,55.5,67.5,59.3,50.7,89,81,65,30.13,29.87,20,4,26,0.05
2013-6-22,70.8,62.5,58.6,64.9,60.1,56.8,98,92,79,30.06,29.91,14,3,15,0.02
2013-6-23,84.7,71.4,62.1,71.2,65.1,60.7,95,82,54,30.00,29.81,22,4,22,0.00
2013-6-24,80.3,74.4,65.2,69.9,67.3,62.8,92,79,67,29.93,29.80,18,5,19,0.00
2013-6-25,75.5,68.9,61.6,68.6,65.1,60.5,96,88,76,29.82,29.76,18,3,18,0.33
2013-6-26,86.3,70.1,56.0,69.4,63.3,55.1,98,81,54,29.80,29.69,11,2,11,0.00
2013-6-27,80.0,68.1,61.3,70.7,64.3,60.0,97,88,62,29.75,29.63,13,2,13,0.26
2013-6-28,75.3,66.5,59.9,65.3,62.2,58.5,98,87,68,29.63,29.55,15,3,15,0.00
2013-6-29,75.0,66.2,58.4,63.1,59.3,55.4,94,79,62,29.78,29.60,17,4,17,0.01
2013-6-30,77.3,66.7,51.7,57.7,50.0,39.9,93,59,30,30.02,29.78,12,3,12,0.00
2013-7-1,72.8,62.6,47.1,54.4,48.0,43.8,92,62,38,30.16,30.02,20,5,20,0.00
2013-7-2,72.3,59.6,42.3,53.0,45.1,38.2,97,64,33,30.17,30.07,15,3,15,0.00
2013-7-3,80.1,65.5,53.4,57.2,51.8,47.0,88,64,38,30.10,30.00,13,3,13,0.00
2013-7-4,78.3,67.0,59.3,64.4,60.3,56.0,96,80,58,30.05,29.98,15,3,15,0.00
2013-7-5,86.3,72.3,57.5,66.0,60.4,55.7,95,69,42,30.03,29.94,17,3,17,0.00
2013-7-6,86.0,75.2,63.0,63.8,59.7,53.4,84,60,38,29.98,29.91,20,4,22,0.00
2013-7-7,82.8,70.4,57.5,68.1,63.5,55.4,96,80,58,29.94,29.87,12,2,13,0.00
2013-7-8,72.8,67.2,64.5,69.7,65.6,62.7,97,95,87,29.95,29.89,15,3,16,0.56
2013-7-9,78.3,70.7,64.9,70.4,67.3,64.3,98,90,74,29.96,29.68,13,2,13,0.03
2013-7-10,70.7,67.4,63.1,69.3,61.6,55.6,97,82,64,29.91,29.61,23,7,24,0.02
2013-7-11,76.0,63.8,50.9,58.3,54.2,49.6,97,73,47,30.08,29.91,13,2,14,0.00
2013-7-12,79.3,65.2,47.6,60.3,54.0,46.2,98,71,41,30.17,30.07,11,2,12,0.00
2013-7-13,83.5,71.8,59.4,63.4,58.5,54.9,88,65,44,30.16,30.07,17,3,18,0.00
2013-7-14,84.8,72.5,56.6,66.2,61.7,54.6,95,71,49,30.22,30.16,14,3,15,0.00
2013-7-15,88.3,75.7,62.1,69.2,64.8,59.7,95,72,48,30.26,30.19,12,2,13,0.00
2013-7-16,91.0,78.0,62.7,73.3,67.9,61.2,97,74,46,30.23,30.13,20,3,20,0.00
2013-7-17,92.3,80.9,70.6,73.4,70.9,66.9,91,73,48,30.16,30.05,22,4,22,0.00
2013-7-18,86.3,77.2,71.3,76.6,71.8,68.4,96,84,66,30.06,29.71,28,4,37,0.97
2013-7-19,82.8,75.1,60.3,73.4,68.3,57.5,96,80,68,29.72,29.56,30,6,31,0.42
2013-7-20,69.5,63.3,53.5,61.2,52.6,44.8,98,71,43,30.00,29.69,18,4,19,0.01
2013-7-21,74.0,60.3,43.1,59.7,52.5,41.5,97,77,57,30.03,29.92,14,3,15,0.00
2013-7-22,84.3,72.2,60.1,68.7,62.6,56.3,90,73,52,29.92,29.59,18,4,18,0.00
2013-7-23,76.0,62.2,56.3,66.3,53.4,45.6,94,73,58,29.92,29.57,28,8,28,0.14
2013-7-24,70.4,58.7,42.5,54.3,49.2,40.9,97,73,51,30.05,29.92,14,2,14,0.00
2013-7-25,76.8,63.3,47.0,59.3,53.4,45.4,97,73,48,30.05,29.95,17,3,17,0.00
2013-7-26,75.0,63.1,57.7,66.2,59.6,54.8,96,89,70,29.98,29.81,18,3,20,1.01
2013-7-27,62.3,58.1,54.4,57.8,54.7,52.6,97,89,76,29.83,29.75,12,3,12,0.14
2013-7-28,63.7,57.8,51.5,56.7,52.6,49.4,95,83,65,29.86,29.70,19,4,22,0.01
2013-7-29,70.3,59.4,52.9,57.8,54.1,51.1,97,84,53,30.14,29.86,15,3,17,0.02
2013-7-30,73.8,61.9,49.7,61.7,55.7,48.0,98,82,53,30.19,30.08,14,2,14,0.00
2013-7-31,76.2,65.0,56.9,64.5,59.6,54.7,96,84,65,30.08,29.83,19,3,19,0.36
2013-8-1,72.0,62.7,53.6,62.1,57.3,52.5,98,84,60,29.85,29.82,16,2,18,0.01
2013-8-2,71.9,62.0,51.8,62.3,57.1,50.4,98,85,65,29.89,29.77,15,3,16,0.10
2013-8-3,65.8,58.9,49.4,56.9,53.1,48.1,98,82,68,30.06,29.89,19,4,19,0.00
2013-8-4,69.5,61.4,51.4,54.9,52.5,48.5,94,74,53,30.18,30.06,14,3,14,0.00
2013-8-5,73.5,59.2,46.6,57.7,52.0,45.5,98,79,43,30.09,29.87,12,2,12,0.02
2013-8-6,76.0,67.3,59.2,67.1,61.5,54.6,95,82,67,29.87,29.75,13,2,13,0.04
2013-8-7,70.7,65.7,57.8,65.7,62.1,54.4,98,88,73,29.94,29.62,17,4,19,0.04
2013-8-8,72.3,61.1,46.8,58.9,52.9,45.5,98,76,50,30.02,29.94,13,2,13,0.00
2013-8-9,73.1,62.9,54.3,62.7,55.5,45.9,94,78,56,30.01,29.85,21,4,21,0.00
2013-8-10,71.2,58.6,43.5,57.5,50.3,41.9,97,76,49,30.11,30.01,14,3,14,0.00
2013-8-11,73.3,62.6,50.8,62.9,55.5,49.0,98,80,52,30.08,29.99,14,2,16,0.00
2013-8-12,75.2,64.0,55.3,63.8,58.8,49.5,97,84,65,30.00,29.84,21,4,21,0.00
2013-8-13,61.2,55.8,50.9,49.9,47.6,44.1,84,74,57,30.09,29.92,22,7,22,0.00
2013-8-14,66.9,56.8,43.2,54.1,49.6,41.9,97,78,58,30.15,30.07,18,4,19,0.00
2013-8-15,73.5,60.8,47.3,59.7,51.7,45.9,98,75,43,30.08,30.02,14,3,15,0.01
2013-8-16,77.3,63.0,48.8,61.8,54.1,47.7,98,77,44,30.17,30.08,12,2,12,0.01
2013-8-17,80.4,64.8,49.8,60.5,53.4,48.7,98,71,40,30.22,30.14,14,2,16,0.00
2013-8-18,80.2,65.4,51.7,60.2,54.1,49.3,94,71,38,30.18,30.04,17,3,17,0.00
2013-8-19,79.0,67.3,53.1,64.2,58.2,51.4,97,75,52,30.06,29.94,20,4,22,0.00
2013-8-20,83.6,74.6,64.8,66.8,63.9,59.9,86,70,50,30.00,29.93,22,5,23,0.00
2013-8-21,85.8,77.1,69.5,71.3,66.4,62.5,86,70,59,29.96,29.79,29,6,31,0.03
2013-8-22,78.4,70.4,56.7,66.2,54.7,49.2,86,59,40,30.09,29.86,14,4,14,0.00
2013-8-23,77.3,62.7,47.1,59.0,52.5,45.7,98,73,41,30.19,30.08,13,2,13,0.00
2013-8-24,79.5,65.5,49.6,61.6,54.7,47.1,93,71,45,30.26,30.16,13,2,13,0.00
2013-8-25,85.5,74.6,57.3,70.1,63.1,54.7,93,68,60,30.17,29.91,35,8,35,0.00
2013-8-26,82.5,75.8,64.4,72.3,68.4,62.2,95,79,63,29.96,29.87,34,5,34,0.09
2013-8-27,79.8,69.6,63.6,72.0,67.0,61.8,97,92,75,29.91,29.81,8,1,8,0.09
2013-8-28,87.0,71.7,59.4,72.1,65.8,58.5,99,84,54,30.00,29.83,13,2,13,0.00
2013-8-29,84.8,72.1,58.5,71.3,65.1,57.4,99,81,56,30.04,29.89,11,2,12,0.00
2013-8-30,76.0,71.5,65.9,70.8,67.0,63.3,96,86,76,29.90,29.70,17,3,20,0.00
2013-8-31,74.9,67.7,59.2,65.6,62.1,57.1,95,83,68,29.86,29.78,14,2,14,0.00
2013-9-1,72.8,65.5,59.0,69.1,62.8,55.9,97,91,78,29.82,29.63,22,3,22,0.19
2013-9-2,58.9,55.9,54.4,56.0,51.5,49.6,92,85,78,29.89,29.73,23,8,25,0.00
2013-9-3,69.5,62.1,54.7,58.7,54.2,50.6,90,76,53,29.98,29.88,17,4,17,0.00
2013-9-4,66.4,62.0,51.3,59.9,53.1,42.3,89,73,51,30.13,29.86,18,4,19,0.00
2013-9-5,63.8,54.0,41.3,49.1,44.3,38.9,94,72,49,30.31,30.13,13,2,13,0.00
2013-9-6,71.6,59.9,44.6,61.3,53.0,43.2,96,79,60,30.21,29.92,21,3,21,0.00
2013-9-7,79.0,70.9,64.0,70.6,65.8,56.7,94,84,70,29.99,29.82,26,4,26,0.22
2013-9-8,69.5,59.5,49.0,57.9,52.0,47.0,97,78,48,30.13,29.99,15,4,15,0.00
2013-9-9,72.0,63.0,52.6,67.3,58.5,50.0,95,86,75,30.02,29.68,15,3,16,0.01
2013-9-10,82.7,74.3,65.7,71.6,68.4,64.3,98,83,68,29.89,29.68,20,4,20,0.18
2013-9-11,76.2,68.4,63.8,67.9,64.9,62.4,96,89,71,29.92,29.84,15,3,16,0.21
2013-9-12,66.9,59.4,51.2,64.2,52.8,44.3,94,79,61,30.04,29.84,29,8,29,0.00
2013-9-13,58.4,49.7,40.1,46.8,41.3,37.6,93,74,52,30.17,30.04,18,5,18,0.01
2013-9-14,64.3,50.7,35.2,53.9,45.3,33.7,98,83,64,30.13,29.97,22,3,22,0.00
2013-9-15,60.5,57.0,49.0,57.5,53.9,44.8,95,89,78,30.20,29.94,19,4,19,0.16
2013-9-16,57.2,47.1,36.8,44.8,38.4,31.7,93,73,44,30.42,30.20,16,3,16,0.00
2013-9-17,63.5,46.3,35.4,49.5,41.1,32.9,96,83,54,30.40,30.16,12,2,12,0.00
2013-9-18,71.8,59.3,44.4,59.1,51.9,42.0,96,78,57,30.16,29.91,16,2,16,0.00
2013-9-19,79.2,70.3,62.8,70.6,64.2,56.7,94,81,70,29.92,29.71,13,3,13,0.03
2013-9-20,70.6,66.3,57.1,66.9,64.0,54.5,97,92,86,29.72,29.60,20,4,20,0.30
2013-9-21,57.1,52.2,47.2,54.5,47.3,40.5,95,84,66,29.89,29.67,23,6,23,0.01
2013-9-22,54.4,46.5,37.5,44.6,40.7,35.3,94,80,65,30.11,29.89,14,3,14,0.00
2013-9-23,60.4,46.1,31.5,49.4,40.3,30.4,98,82,54,30.21,30.10,12,2,12,0.01
2013-9-24,65.3,51.4,37.6,53.8,46.0,36.1,98,83,60,30.16,30.01,12,2,13,0.00
2013-9-25,70.3,52.4,37.6,54.0,44.5,36.3,98,78,37,30.05,29.98,10,2,10,0.01
2013-9-26,71.7,52.8,35.1,54.4,44.7,34.1,98,77,35,30.13,30.02,10,2,10,0.00
2013-9-27,78.2,59.4,42.7,57.3,50.1,41.4,97,75,38,30.20,30.10,12,2,12,0.00
2013-9-28,77.5,64.6,53.5,56.9,53.4,49.8,90,69,43,30.13,29.79,18,4,19,0.00
2013-9-29,69.8,57.8,43.5,60.5,50.4,41.9,95,78,55,29.99,29.78,22,4,22,0.23
2013-9-30,69.7,53.9,38.1,52.4,45.1,37.1,98,76,41,29.99,29.83,14,2,16,0.01
2013-10-1,77.2,65.2,56.4,63.3,57.1,49.3,86,75,58,29.85,29.67,23,6,25,0.00
2013-10-2,69.7,60.5,48.4,60.5,48.0,41.0,90,66,37,30.05,29.79,14,3,16,0.00
2013-10-3,59.6,53.0,42.8,54.7,48.9,40.1,95,86,70,30.05,29.91,18,5,19,0.36
2013-10-4,57.3,55.5,54.2,54.0,53.4,52.0,95,93,88,30.10,29.92,19,7,20,0.32
2013-10-5,55.7,53.1,50.1,52.8,50.9,48.2,96,92,87,30.10,29.87,26,10,27,1.76
2013-10-6,65.8,57.0,51.3,64.6,55.9,49.6,98,96,93,29.87,29.56,30,5,33,0.33
2013-10-7,55.9,51.5,47.9,53.5,46.4,40.5,98,83,64,30.03,29.51,23,7,23,0.17
2013-10-8,67.4,52.9,37.2,51.7,44.3,35.6,97,75,48,30.18,30.02,16,3,16,0.00
2013-10-9,72.5,60.6,47.9,56.0,50.5,46.1,95,71,49,30.20,30.13,19,3,19,0.00
2013-10-10,71.0,54.4,41.3,53.1,46.6,40.0,98,78,42,30.19,30.10,11,2,11,0.00
2013-10-11,70.5,54.1,40.6,54.9,47.3,39.5,98,80,47,30.15,30.03,17,3,17,0.01
2013-10-12,78.8,61.1,47.3,59.7,50.5,41.4,92,71,37,30.04,29.89,19,4,20,0.03
2013-10-13,60.9,52.3,37.5,56.7,45.7,34.3,89,78,71,30.38,29.98,17,4,18,0.00
2013-10-14,58.4,43.3,31.1,45.4,37.0,29.8,97,81,47,30.45,30.29,12,2,12,0.01
2013-10-15,56.8,47.0,33.4,53.7,44.0,31.6,97,90,70,30.29,29.69,18,4,18,0.29
2013-10-16,55.9,51.7,48.6,55.1,49.3,44.0,97,92,84,29.82,29.62,19,5,20,0.19
2013-10-17,51.8,46.6,39.4,44.0,40.9,37.3,96,81,67,29.84,29.72,15,2,15,0.00
2013-10-18,52.7,44.5,35.4,48.0,41.9,34.1,98,91,75,29.80,29.72,11,2,11,0.14
2013-10-19,50.4,43.7,39.0,43.3,39.8,34.6,96,87,56,29.79,29.66,14,2,15,0.34
2013-10-20,51.3,42.7,37.5,44.4,39.1,35.9,96,88,61,29.81,29.67,17,3,18,0.32
2013-10-21,47.9,42.6,34.3,45.4,39.3,29.8,97,88,68,29.73,29.59,23,6,25,0.38
2013-10-22,44.5,39.2,33.2,37.2,33.6,28.2,95,80,71,29.86,29.61,27,8,27,0.15
2013-10-23,43.4,37.3,29.6,34.7,31.6,28.1,95,80,61,29.86,29.80,23,6,24,0.05
2013-10-24,45.4,40.3,37.8,38.1,35.5,32.1,91,83,69,30.11,29.84,19,7,20,0.06
2013-10-25,45.4,40.6,37.2,38.9,33.1,30.0,91,75,58,30.20,29.74,27,6,37,0.25
2013-10-26,49.1,42.4,39.0,42.7,37.5,32.7,92,83,73,29.92,29.52,33,10,33,0.37
2013-10-27,46.3,40.6,37.1,38.0,34.5,31.8,91,79,67,29.93,29.83,23,4,23,0.02
2013-10-28,38.8,32.9,23.4,32.2,24.9,20.6,89,73,52,30.49,30.17,20,4,20,0.00
2013-10-29,38.0,30.0,19.7,32.3,25.0,17.5,94,83,62,30.51,30.24,10,2,10,0.00
2013-10-30,49.9,42.1,34.6,43.8,38.3,32.2,95,87,74,30.25,29.84,10,3,10,0.02
2013-10-31,58.1,53.6,48.1,57.3,52.4,43.9,98,96,81,29.85,28.98,12,2,13,0.87
2013-11-1,55.1,46.1,41.0,54.3,43.9,37.1,98,92,84,29.65,28.91,32,6,32,0.28
2013-11-2,40.9,36.8,31.3,37.5,31.9,28.4,91,83,70,30.15,29.65,16,4,17,0.00
2013-11-3,44.1,35.4,27.9,30.9,28.7,24.8,92,77,57,30.40,30.15,15,3,15,0.00
2013-11-4,50.0,41.2,33.2,34.5,30.6,26.5,88,68,43,30.41,30.14,20,6,23,0.00
2013-11-5,54.9,49.7,44.6,46.7,43.3,33.2,94,79,63,30.24,29.97,17,4,18,0.08
2013-11-6,52.4,45.0,37.7,51.0,42.6,31.4,96,91,77,29.97,29.63,26,6,26,0.76
2013-11-7,39.0,37.5,35.1,32.3,30.9,28.4,88,77,66,30.05,29.94,20,7,21,0.00
2013-11-8,39.8,37.2,34.6,31.5,28.5,24.7,84,71,60,30.19,30.05,19,4,19,0.00
2013-11-9,44.7,39.1,33.1,43.6,35.7,28.1,96,88,72,30.06,29.60,30,7,31,0.60
2013-11-10,43.7,39.7,37.4,36.0,32.9,27.4,88,76,61,30.16,29.73,30,9,30,0.00
2013-11-11,44.3,31.4,25.6,35.6,24.4,16.9,93,75,59,30.38,29.92,30,10,30,0.16
2013-11-12,30.0,27.5,25.1,23.5,18.3,14.2,83,68,54,30.54,30.38,24,8,25,0.00
2013-11-13,43.2,36.1,26.2,33.7,26.6,15.2,82,68,55,30.43,29.84,32,8,34,0.00
2013-11-14,45.7,42.6,40.2,39.3,34.6,30.9,90,74,64,29.88,29.77,27,8,30,0.03
2013-11-15,51.0,43.3,33.6,41.5,38.2,31.8,96,82,68,29.93,29.81,18,4,20,0.00
2013-11-16,53.6,45.5,36.0,51.2,41.6,32.2,94,86,78,29.94,29.49,23,5,24,0.43
2013-11-17,58.9,53.8,44.2,57.2,52.1,41.7,97,94,90,29.50,28.95,27,6,28,1.89
2013-11-18,44.2,38.7,32.6,42.0,33.6,25.8,92,82,74,30.09,29.16,34,8,35,0.03
2013-11-19,32.6,32.6,32.6,25.9,25.9,25.9,76,76,76,30.36,30.10,0,0,0,0.00
2013-11-20,32.6,32.6,32.6,25.9,25.9,25.9,76,76,76,30.31,30.16,0,0,0,0.00
2013-11-21,32.6,32.6,32.6,25.9,25.9,25.9,76,76,76,30.17,30.12,0,0,0,0.00
2013-11-22,32.6,32.6,32.6,25.9,25.9,25.9,76,76,76,30.31,30.13,0,0,0,0.00
2013-11-23,32.6,19.7,0.0,25.9,15.6,0.0,76,46,76,30.44,30.17,0,0,0,0.00
2013-11-24,0.0,0.0,0.0,0.0,0.0,0.0,0,0,100,30.48,30.08,0,0,0,0.00
2013-11-25,0.0,0.0,0.0,0.0,0.0,0.0,0,0,100,30.08,29.76,0,0,0,0.00
2013-11-26,0.0,0.0,0.0,0.0,0.0,0.0,0,0,100,30.00,29.83,0,0,0,0.00
2013-11-27,0.0,0.0,0.0,0.0,0.0,0.0,0,0,100,30.14,29.96,0,0,0,0.00
2013-11-28,0.0,0.0,0.0,0.0,0.0,0.0,0,0,100,30.40,30.14,0,0,0,0.00
2013-11-29,0.0,0.0,0.0,0.0,0.0,0.0,0,0,100,30.57,30.41,7,2,11,0.00
2013-11-30,0.0,0.0,0.0,0.0,0.0,0.0,0,0,100,30.41,29.98,14,5,16,0.00
2013-12-1,0.0,0.0,0.0,0.0,0.0,0.0,0,0,100,30.08,29.99,7,2,10,0.00
2013-12-2,0.0,0.0,0.0,0.0,0.0,0.0,0,0,100,29.99,29.87,4,2,5,0.00
2013-12-3,0.0,0.0,0.0,0.0,0.0,0.0,0,0,100,29.94,29.88,11,5,11,0.00
2013-12-4,41.5,24.1,0.0,40.2,23.2,0.0,95,59,90,29.90,29.40,28,12,28,0.26
2013-12-5,47.7,32.3,20.7,46.2,26.4,12.3,97,79,67,30.06,29.38,40,11,40,0.03
2013-12-6,21.6,19.9,18.5,14.1,11.6,9.0,77,70,61,30.36,30.06,25,8,25,0.00
2013-12-7,20.2,17.7,16.0,11.5,8.9,5.4,74,68,59,30.53,30.36,26,8,26,0.00
2013-12-8,20.2,16.4,12.3,17.7,11.2,5.1,90,79,65,30.54,30.07,18,4,19,0.00
2013-12-9,26.7,21.7,12.1,23.8,17.9,5.5,93,85,70,30.07,29.73,32,7,32,0.00
2013-12-10,18.4,14.1,11.5,14.0,9.2,4.9,89,80,69,30.05,29.74,26,6,26,0.00
2013-12-11,15.2,13.0,11.0,6.8,3.4,0.4,71,65,57,30.33,30.04,26,10,26,0.00
2013-12-12,19.0,15.0,10.9,11.4,8.4,1.5,87,75,64,30.32,30.03,25,9,26,0.00
2013-12-13,18.9,8.0,-4.7,11.6,1.2,-9.2,84,73,59,30.45,30.03,27,6,29,0.00
2013-12-14,19.5,13.7,2.7,15.5,9.3,-3.2,89,82,66,30.45,29.93,20,6,20,0.00
2013-12-15,19.6,15.2,2.0,16.0,12.2,-2.2,90,88,82,30.02,29.69,14,4,15,0.00
2013-12-16,14.6,-1.1,-18.8,11.4,-5.3,-23.5,88,82,76,30.18,29.97,17,4,18,0.00
2013-12-17,26.6,19.5,14.6,23.3,16.8,11.4,92,89,84,29.97,29.80,20,4,20,0.00
2013-12-18,24.6,21.9,19.2,20.9,16.9,12.5,91,81,74,30.01,29.73,20,6,20,0.00
2013-12-19,29.2,24.7,19.8,25.8,20.6,15.8,90,84,78,30.09,29.71,18,5,18,0.00
2013-12-20,21.5,18.8,16.6,19.7,16.5,14.2,93,90,82,30.06,29.87,13,4,14,0.00
2013-12-21,24.4,22.3,20.2,22.3,20.4,18.5,93,92,90,30.02,29.85,21,4,24,0.00
2013-12-22,23.6,17.5,11.4,21.3,15.2,8.9,92,91,86,30.09,29.82,24,7,24,0.00
2013-12-23,11.3,7.7,2.0,8.9,5.0,-1.2,90,89,86,30.39,30.09,10,2,10,0.00
2013-12-24,13.8,-2.5,-18.7,10.9,-6.0,-23.1,88,85,80,30.53,30.39,9,2,9,0.02
2013-12-25,22.5,16.6,5.5,20.9,14.3,2.5,94,91,87,30.46,30.03,23,6,25,0.00
2013-12-26,20.9,18.1,14.3,18.5,15.8,11.4,93,91,87,30.22,30.00,14,4,15,0.00
2013-12-27,37.0,19.4,-3.4,34.6,16.7,-6.9,92,89,85,30.25,29.86,22,4,22,0.02
2013-12-28,38.9,32.7,24.2,33.3,30.2,22.9,96,91,78,29.97,29.73,19,3,19,0.24
2013-12-29,32.1,17.0,6.4,30.8,13.9,1.2,97,88,76,30.08,29.68,26,8,28,0.00
2013-12-30,13.8,7.2,-7.6,9.2,3.5,-11.6,91,84,76,30.24,30.08,15,3,15,0.00
2013-12-31,11.1,8.5,5.8,7.5,2.7,-2.4,91,77,64,30.33,30.01,29,8,29,0.00
2014-1-1,7.5,2.8,-5.5,1.9,-1.4,-9.3,90,82,71,30.51,30.32,16,4,17,0.00
2014-1-2,6.0,-3.6,-17.7,1.4,-7.5,-22.1,88,83,71,30.45,30.36,13,2,13,0.00